M I D A S
Marine Information and Data Acquisition System
Tripno 718 of the Zeeleeuw from 2004-05-17 06:24:55 to 2004-05-17 15:07:46
Back to CruiseResearch ActivitiesStationsMapUnderway DataData graphs

EquipmentUnitsComments
TimeDGPSUTC
LatitudeDGPSDM.mWGS84
LongitudeDGPSDM.mWGS84
SpeedMeteo Stationm/sRelative wind speed
DirectionMeteo StationdegRelative wind direction
TemperatureMeteo Stationdeg CelciusAir temperature
PressureMeteo StationPaAtmospheric pressure
HumidityMeteo Station%Relative humidity
Missing or incorrect values are displayed as -999
Metereological data collected by the RV Zeeleeuw from 2004-05-17 06:24:55 to 2004-05-17 15:07:46
Time Latitude Longitude Speed Direction Temperature Pressure Humidity
2004-05-17 06:25 51°13.599 2°56.09 3.5 20 13.9 102680 77
2004-05-17 06:26 51°13.608 2°56.065 2.4 36 14 102680 77
2004-05-17 06:27 51°13.627 2°56.006 2.2 20 14 102680 76
2004-05-17 06:28 51°13.651 2°55.935 1.8 76 14.1 102680 76
2004-05-17 06:29 51°13.677 2°55.819 1.3 118 14.1 102690 75
2004-05-17 06:30 51°13.685 2°55.757 2.5 81 14.2 102680 75
2004-05-17 06:31 51°13.717 2°55.77 3.3 146 14.3 102680 76
2004-05-17 06:32 51°13.721 2°55.771 1.9 180 14.3 102690 75
2004-05-17 06:33 51°13.748 2°55.736 0.9 193 14.4 102690 76
2004-05-17 06:34 51°13.79 2°55.679 0.7 156 14.5 102680 75
2004-05-17 06:35 51°13.845 2°55.635 1.4 120 14.5 102690 75
2004-05-17 06:36 51°13.906 2°55.637 0.6 101 14.6 102680 75
2004-05-17 06:37 51°13.944 2°55.628 2.1 169 14.6 102680 74
2004-05-17 06:38 51°13.955 2°55.623 2.4 175 14.7 102680 74
2004-05-17 06:39 51°13.957 2°55.622 1.8 154 14.7 102690 74
2004-05-17 06:40 51°13.955 2°55.624 2.3 169 14.7 102680 73
2004-05-17 06:41 51°13.95 2°55.626 2.4 147 14.8 102680 73
2004-05-17 06:42 51°13.954 2°55.624 2.8 160 14.8 102680 73
2004-05-17 06:43 51°13.961 2°55.62 2.7 167 14.8 102680 73
2004-05-17 06:44 51°13.968 2°55.615 2.2 148 14.8 102680 72
2004-05-17 06:45 51°13.971 2°55.612 4.4 165 14.7 102680 72
2004-05-17 06:46 51°13.97 2°55.611 3.2 153 14.7 102690 73
2004-05-17 06:47 51°13.972 2°55.607 3.5 165 14.7 102680 73
2004-05-17 06:48 51°13.993 2°55.583 2.3 162 14.6 102690 73
2004-05-17 06:49 51°14.068 2°55.492 0.1 169 14.6 102690 73
2004-05-17 06:50 51°14.197 2°55.351 1.4 2 14.7 102690 73
2004-05-17 06:51 51°14.318 2°55.175 1.2 347 14.7 102690 73
2004-05-17 06:52 51°14.421 2°54.96 1.4 324 14.8 102680 73
2004-05-17 06:53 51°14.551 2°54.796 1.3 40 14.9 102680 73
2004-05-17 06:54 51°14.704 2°54.693 2.1 58 14.9 102680 73
2004-05-17 06:55 51°14.859 2°54.589 1.8 56 14.9 102680 74
2004-05-17 06:56 51°15.007 2°54.482 2.8 57 14.8 102680 73
2004-05-17 06:57 51°15.156 2°54.377 3.1 59 14.8 102680 74
2004-05-17 06:58 51°15.311 2°54.294 3.3 57 14.7 102680 75
2004-05-17 06:59 51°15.46 2°54.188 2.5 42 14.6 102680 75
2004-05-17 07:00 51°15.607 2°54.068 4.4 27 14.5 102680 77
2004-05-17 07:01 51°15.761 2°54.023 4.8 33 14.5 102680 78
2004-05-17 07:02 51°15.911 2°54.029 5.5 28 14.4 102680 78
2004-05-17 07:03 51°16.027 2°54.096 3.3 42 14.4 102680 78
2004-05-17 07:04 51°16.102 2°54.134 2.9 45 14.3 102680 78
2004-05-17 07:05 51°16.163 2°54.204 4.4 42 14.3 102690 79
2004-05-17 07:06 51°16.248 2°54.281 3.4 58 14.3 102680 79
2004-05-17 07:07 51°16.281 2°54.303 2.7 108 14.3 102690 78
2004-05-17 07:08 51°16.282 2°54.287 2.9 117 14.4 102680 78
2004-05-17 07:09 51°16.281 2°54.27 2.6 116 14.5 102680 77
2004-05-17 07:10 51°16.278 2°54.251 2.6 117 14.6 102680 77
2004-05-17 07:11 51°16.274 2°54.231 2.3 117 14.7 102680 76
2004-05-17 07:12 51°16.269 2°54.21 2.3 116 14.7 102680 76
2004-05-17 07:13 51°16.284 2°54.204 3 57 14.8 102680 76
2004-05-17 07:14 51°16.418 2°54.035 4.2 358 14.8 102680 75
2004-05-17 07:15 51°16.537 2°53.721 4.4 354 14.8 102680 75
2004-05-17 07:16 51°16.665 2°53.416 4.5 357 14.8 102680 75
2004-05-17 07:17 51°16.807 2°53.136 5.8 2 14.8 102690 75
2004-05-17 07:18 51°16.951 2°52.892 6.4 6 14.7 102680 76
2004-05-17 07:19 51°17.099 2°52.621 5.4 1 14.5 102680 77
2004-05-17 07:20 51°17.256 2°52.375 4.4 8 14.5 102680 77
2004-05-17 07:21 51°17.422 2°52.142 4.7 10 14.5 102680 77
2004-05-17 07:22 51°17.588 2°51.906 5.4 11 14.5 102680 77
2004-05-17 07:23 51°17.756 2°51.669 7.4 10 14.5 102680 78
2004-05-17 07:24 51°17.916 2°51.441 7.1 7 14.3 102680 79
2004-05-17 07:25 51°18.086 2°51.197 6.3 3 14.2 102680 79
2004-05-17 07:26 51°18.225 2°50.994 3.7 2 14.2 102680 79
2004-05-17 07:27 51°18.323 2°50.92 2.7 12 14.2 102680 79
2004-05-17 07:28 51°18.393 2°50.96 2.7 21 14.2 102680 79
2004-05-17 07:29 51°18.465 2°50.99 2.6 20 14.3 102670 80
2004-05-17 07:30 51°18.478 2°50.97 0.4 50 14.4 102680 80
2004-05-17 07:31 51°18.467 2°50.943 0.5 50 14.5 102680 80
2004-05-17 07:32 51°18.457 2°50.918 0.7 49 14.6 102680 79
2004-05-17 07:33 51°18.446 2°50.894 0.7 57 14.7 102680 79
2004-05-17 07:34 51°18.434 2°50.872 0.8 59 14.7 102670 78
2004-05-17 07:35 51°18.423 2°50.853 1.4 44 14.7 102670 78
2004-05-17 07:36 51°18.428 2°50.899 3.5 18 14.6 102670 78
2004-05-17 07:37 51°18.492 2°50.861 2.2 5 14.5 102670 78
2004-05-17 07:38 51°18.443 2°50.642 4.6 356 14.5 102670 78
2004-05-17 07:39 51°18.293 2°50.513 4.8 5 14.4 102670 78
2004-05-17 07:41 51°18.07 2°50.445 8.4 356 14.3 102670 80
2004-05-17 07:42 51°17.84 2°50.32 8.8 353 14.3 102660 80
2004-05-17 07:43 51°17.606 2°50.218 8.7 355 14.4 102660 79
2004-05-17 07:44 51°17.364 2°50.121 8.3 356 14.5 102660 78
2004-05-17 07:45 51°17.134 2°49.999 7.5 358 14.5 102660 78
2004-05-17 07:46 51°16.921 2°49.827 7.2 3 14.4 102660 79
2004-05-17 07:47 51°16.716 2°49.6 7.5   14.3 102660 79
2004-05-17 07:48 51°16.506 2°49.373 7.2 5 14.2 102660 80
2004-05-17 07:49 51°16.312 2°49.133 7 4 14.1 102650 81
2004-05-17 07:50 51°16.127 2°48.865 7.7 359 14.1 102650 81
2004-05-17 07:51 51°15.956 2°48.577 7.3 355 14 102650 81
2004-05-17 07:52 51°15.792 2°48.281 7.9 358 14 102650 79
2004-05-17 07:53 51°15.606 2°48.016 8.4 3 14.2 102650 78
2004-05-17 07:54 51°15.417 2°47.782 8.5 8 14.2 102650 78
2004-05-17 07:55 51°15.224 2°47.541 9.3 6 14.2 102650 78
2004-05-17 07:56 51°15.038 2°47.306 8.7 5 14.2 102650 79
2004-05-17 07:57 51°14.813 2°47.03 9.2 7 14.2 102650 79
2004-05-17 07:58 51°14.611 2°46.791 8.8 5 14.1 102650 80
2004-05-17 07:59 51°14.413 2°46.554 9.2 3 14.1 102640 80
2004-05-17 08:00 51°14.255 2°46.362 6.1 354 14 102640 80
2004-05-17 08:01 51°14.163 2°46.269 4.1 351 14.1 102650 79
2004-05-17 08:02 51°14.094 2°46.22 4.3 352 14.3 102650 78
2004-05-17 08:03 51°13.967 2°46.09 8.1 352 14.5 102640 77
2004-05-17 08:04 51°13.786 2°45.87 8.6 355 14.6 102640 76
2004-05-17 08:05 51°13.598 2°45.638 7.5 357 14.7 102640 76
2004-05-17 08:06 51°13.416 2°45.379 7.7 6 14.6 102640 76
2004-05-17 08:07 51°13.238 2°45.121 7.3 6 14.5 102640 77
2004-05-17 08:08 51°13.061 2°44.866 7.1 6 14.4 102640 78
2004-05-17 08:09 51°12.877 2°44.603 7 9 14.3 102640 78
2004-05-17 08:10 51°12.696 2°44.343 7.2 5 14.3 102640 79
2004-05-17 08:11 51°12.518 2°44.088 6.8 12 14.3 102640 79
2004-05-17 08:12 51°12.323 2°43.812 7.1 11 14.2 102640 80
2004-05-17 08:13 51°12.128 2°43.541 7 22 14.2 102640 81
2004-05-17 08:14 51°11.953 2°43.285 7.6 12 14.2 102640 80
2004-05-17 08:15 51°11.774 2°43.045 7.7 3 14.3 102640 80
2004-05-17 08:16 51°11.592 2°42.796 8.4 1 14.4 102640 80
2004-05-17 08:17 51°11.413 2°42.547 7.9   14.5 102640 79
2004-05-17 08:18 51°11.252 2°42.322 5.2 359 14.7 102640 78
2004-05-17 08:19 51°11.158 2°42.219 2.5 359 14.8 102640 77
2004-05-17 08:20 51°11.141 2°42.182 0.2 316 15 102640 77
2004-05-17 08:21 51°11.135 2°42.172   327 15.2 102640 77
2004-05-17 08:22 51°11.129 2°42.157 1 11 15.3 102640 76
2004-05-17 08:23 51°11.122 2°42.14 1.3 25 15.3 102640 75
2004-05-17 08:24 51°11.116 2°42.121 2.2 66 15.2 102640 74
2004-05-17 08:25 51°11.109 2°42.1 2.8 56 15.1 102640 77
2004-05-17 08:26 51°11.101 2°42.08 2.2 55 14.8 102640 79
2004-05-17 08:27 51°11.093 2°42.056 1.8 57 14.5 102640 79
2004-05-17 08:28 51°11.086 2°42.032 1.5 49 14.4 102640 79
2004-05-17 08:29 51°11.08 2°42.006 1.2 46 14.4 102640 79
2004-05-17 08:30 51°11.101 2°41.922 3.6 5 14.4 102630 79
2004-05-17 08:31 51°11.177 2°41.788 4.5 7 14.6 102630 78
2004-05-17 08:32 51°11.257 2°41.588 6.5 6 14.7 102630 77
2004-05-17 08:33 51°11.402 2°41.386 8.1 4 14.6 102630 77
2004-05-17 08:34 51°11.558 2°41.172 7.8 3 14.6 102630 78
2004-05-17 08:35 51°11.738 2°41.021 7.5 3 14.4 102630 79
2004-05-17 08:36 51°11.893 2°40.945 5.3 2 14.3 102640 79
2004-05-17 08:37 51°12.052 2°40.911 6.3 1 14.3 102630 78
2004-05-17 08:38 51°12.255 2°40.98 7.5 1 14.2 102630 78
2004-05-17 08:39 51°12.455 2°41.116 7.6 3 14.2 102630 80
2004-05-17 08:40 51°12.645 2°41.29 7.2   14.2 102630 80
2004-05-17 08:41 51°12.834 2°41.469 7 1 14.3 102630 80
2004-05-17 08:42 51°13.022 2°41.649 7.4 360 14.3 102630 80
2004-05-17 08:43 51°13.203 2°41.823 7.6 357 14.3 102630 80
2004-05-17 08:44 51°13.387 2°42.03 7.2 358 14.3 102630 80
2004-05-17 08:45 51°13.56 2°42.221 7.7 358 14.3 102630 79
2004-05-17 08:46 51°13.74 2°42.419 7.3 359 14.4 102630 80
2004-05-17 08:47 51°13.92 2°42.617 7.4 359 14.4 102630 79
2004-05-17 08:48 51°14.108 2°42.82 7.2   14.4 102620 79
2004-05-17 08:49 51°14.291 2°43.016 7.4 357 14.5 102620 79
2004-05-17 08:50 51°14.474 2°43.213 7.4 353 14.5 102630 79
2004-05-17 08:51 51°14.658 2°43.408 6.9 352 14.5 102620 79
2004-05-17 08:52 51°14.791 2°43.555 4.1 352 14.6 102630 79
2004-05-17 08:53 51°14.872 2°43.64 1.5 344 14.6 102630 79
2004-05-17 08:54 51°14.92 2°43.724 1.3 343 14.7 102630 79
2004-05-17 08:55 51°14.929 2°43.752 0.3 328 14.8 102630 79
2004-05-17 08:56 51°14.931 2°43.774 0.2 327 15 102630 79
2004-05-17 08:57 51°14.929 2°43.793 0.3 42 15.3 102630 79
2004-05-17 08:58 51°14.927 2°43.809 0.7 308 15.6 102630 78
2004-05-17 08:59 51°14.924 2°43.814 1.1 253 15.8 102630 77
2004-05-17 09:00 51°14.914 2°43.736 2.2 226 15.7 102620 75
2004-05-17 09:01 51°14.89 2°43.626 2.7 226 15.4 102620 74
2004-05-17 09:02 51°14.844 2°43.525 2.1 240 15.1 102620 76
2004-05-17 09:03 51°14.791 2°43.462 1.4 293 14.9 102620 77
2004-05-17 09:04 51°14.79 2°43.458 2.2 290 14.8 102620 79
2004-05-17 09:05 51°14.787 2°43.458 1.9 281 14.9 102620 79
2004-05-17 09:06 51°14.785 2°43.464 1.5 290 14.9 102620 79
2004-05-17 09:07 51°14.764 2°43.526 0.5 308 15 102620 79
2004-05-17 09:08 51°14.693 2°43.48 3.7 22 15.1 102610 77
2004-05-17 09:09 51°14.624 2°43.187 7 13 14.9 102610 77
2004-05-17 09:10 51°14.586 2°42.824 7.8 18 14.8 102600 78
2004-05-17 09:11 51°14.559 2°42.46 7.6 15 14.7 102600 78
2004-05-17 09:12 51°14.536 2°42.099 7.5 20 14.7 102600 78
2004-05-17 09:13 51°14.508 2°41.742 7.6 21 14.6 102590 79
2004-05-17 09:14 51°14.481 2°41.387 7.5 19 14.7 102590 79
2004-05-17 09:15 51°14.457 2°41.033 7.6 20 14.6 102600 79
2004-05-17 09:16 51°14.459 2°40.688 7.3 20 14.7 102590 79
2004-05-17 09:17 51°14.46 2°40.325 7.4 18 14.7 102600 78
2004-05-17 09:18 51°14.478 2°39.985 7.6 19 14.7 102590 78
2004-05-17 09:19 51°14.54 2°39.639 8.1 15 14.7 102600 77
2004-05-17 09:20 51°14.639 2°39.336 8.1 16 14.7 102590 77
2004-05-17 09:21 51°14.773 2°39.044 8.4 12 14.6 102600 77
2004-05-17 09:22 51°14.928 2°38.786 8.8 12 14.5 102590 78
2004-05-17 09:23 51°15.091 2°38.534 8.7 13 14.5 102590 78
2004-05-17 09:24 51°15.255 2°38.301 8 13 14.4 102590 79
2004-05-17 09:25 51°15.423 2°38.077 8.4 18 14.3 102590 80
2004-05-17 09:26 51°15.597 2°37.86 7.9 19 14.2 102590 80
2004-05-17 09:27 51°15.767 2°37.65 7.8 20 14.3 102590 80
2004-05-17 09:28 51°15.944 2°37.446 8.1 17 14.3 102590 79
2004-05-17 09:29 51°16.134 2°37.262 8.1 16 14.3 102580 79
2004-05-17 09:30 51°16.331 2°37.068 8.3 13 14.3 102580 79
2004-05-17 09:31 51°16.52 2°36.882 6.5 17 14.3 102590 78
2004-05-17 09:32 51°16.614 2°36.81 2.3 47 14.4 102590 78
2004-05-17 09:33 51°16.628 2°36.796 1.3 116 14.4 102590 78
2004-05-17 09:34 51°16.633 2°36.799 1.4 125 14.4 102590 78
2004-05-17 09:35 51°16.636 2°36.802 1.6 136 14.5 102590 78
2004-05-17 09:36 51°16.639 2°36.803 1.5 127 14.6 102590 78
2004-05-17 09:37 51°16.641 2°36.804 1.4 128 14.6 102580 77
2004-05-17 09:38 51°16.643 2°36.804 1.6 132 14.7 102590 77
2004-05-17 09:39 51°16.644 2°36.804 1.6 124 14.7 102590 77
2004-05-17 09:40 51°16.646 2°36.802 1.6 120 14.7 102590 77
2004-05-17 09:41 51°16.649 2°36.8 1.4 118 14.7 102590 77
2004-05-17 09:42 51°16.647 2°36.756 3.1 34 14.8 102580 76
2004-05-17 09:43 51°16.692 2°36.522 7.2 22 14.6 102580 76
2004-05-17 09:44 51°16.81 2°36.219 7.7 18 14.6 102570 76
2004-05-17 09:45 51°16.951 2°35.935 7.9 20 14.6 102570 77
2004-05-17 09:46 51°17.085 2°35.663 6.8 18 14.5 102570 77
2004-05-17 09:47 51°17.217 2°35.4 7 21 14.5 102560 77
2004-05-17 09:48 51°17.35 2°35.137 6.8 21 14.4 102570 78
2004-05-17 09:49 51°17.48 2°34.883 7 23 14.4 102570 78
2004-05-17 09:50 51°17.617 2°34.621 7.3 23 14.4 102570 79
2004-05-17 09:51 51°17.754 2°34.356 7.3 22 14.4 102570 79
2004-05-17 09:52 51°17.897 2°34.077 7.4 22 14.4 102570 79
2004-05-17 09:53 51°18.038 2°33.802 6.9 24 14.4 102560 80
2004-05-17 09:54 51°18.18 2°33.528 6.8 22 14.4 102570 80
2004-05-17 09:55 51°18.316 2°33.259 6.8 21 14.4 102560 80
2004-05-17 09:56 51°18.464 2°32.967 6.7 20 14.3 102560 80
2004-05-17 09:57 51°18.597 2°32.702 7.1 20 14.2 102560 80
2004-05-17 09:58 51°18.737 2°32.422 6.9 19 14.2 102570 80
2004-05-17 09:59 51°18.899 2°32.097 7.3 17 14.2 102560 80
2004-05-17 10:00 51°19.04 2°31.813 7.5 17 14.2 102560 79
2004-05-17 10:01 51°19.192 2°31.497 7.5 12 14.2 102560 78
2004-05-17 10:02 51°19.341 2°31.194 7.2 19 14.2 102570 79
2004-05-17 10:03 51°19.483 2°30.914 6.9 18 14.2 102560 79
2004-05-17 10:04 51°19.62 2°30.629 6.6 19 14.2 102560 79
2004-05-17 10:05 51°19.759 2°30.355 6.8 21 14.2 102560 79
2004-05-17 10:07 51°19.911 2°30.076 6.2 25 14.2 102560 80
2004-05-17 10:08 51°20.023 2°29.941 3.3 53 14.1 102570 81
2004-05-17 10:09 51°20.07 2°29.967 1.9 70 13.9 102570 81
2004-05-17 10:10 51°20.082 2°30.013 1.9 74 13.7 102570 83
2004-05-17 10:11 51°20.094 2°30.062 1.9 76 13.6 102570 84
2004-05-17 10:12 51°20.108 2°30.114 2.3 78 13.5 102560 84
2004-05-17 10:13 51°20.123 2°30.166 2 78 13.4 102570 85
2004-05-17 10:14 51°20.14 2°30.219 2 74 13.4 102560 86
2004-05-17 10:15 51°20.155 2°30.27 2.1 71 13.3 102570 86
2004-05-17 10:16 51°20.169 2°30.324 2.2 71 13.3 102560 86
2004-05-17 10:17 51°20.185 2°30.376 2.3 67 13.3 102570 87
2004-05-17 10:18 51°20.201 2°30.433 2.6 63 13.2 102570 87
2004-05-17 10:19 51°20.322 2°30.576 8.9 10 13.2 102560 87
2004-05-17 10:20 51°20.444 2°30.993 8.8 4 13.3 102550 87
2004-05-17 10:21 51°20.541 2°31.371 9.7 3 13.4 102550 86
2004-05-17 10:22 51°20.649 2°31.787 9.2 1 13.5 102550 85
2004-05-17 10:23 51°20.757 2°32.197 9.5   13.6 102550 84
2004-05-17 10:24 51°20.856 2°32.564 9.5 358 13.7 102550 84
2004-05-17 10:25 51°20.955 2°32.932 9.2 356 13.9 102550 84
2004-05-17 10:26 51°21.054 2°33.303 8.9 356 14 102550 85
2004-05-17 10:27 51°21.151 2°33.666 8.6 358 14 102550 85
2004-05-17 10:28 51°21.259 2°34.008 9.4 358 14 102550 84
2004-05-17 10:29 51°21.371 2°34.369 9.5 358 14 102550 84
2004-05-17 10:30 51°21.484 2°34.734 8.9 358 13.9 102540 84
2004-05-17 10:31 51°21.602 2°35.112 9.4 358 14 102550 84
2004-05-17 10:32 51°21.717 2°35.487 9.4 357 13.9 102550 85
2004-05-17 10:34 51°21.835 2°35.874 9.6 359 14 102540 85
2004-05-17 10:35 51°21.947 2°36.249 9.3 360 13.9 102540 85
2004-05-17 10:36 51°22.062 2°36.637 9.6 360 14 102550 84
2004-05-17 10:37 51°22.187 2°37.033 10 358 14 102550 84
2004-05-17 10:38 51°22.305 2°37.407 9.2 359 14.1 102550 84
2004-05-17 10:39 51°22.428 2°37.79 9.1 359 14.1 102550 83
2004-05-17 10:40 51°22.553 2°38.18 9.5 358 14.1 102540 83
2004-05-17 10:41 51°22.666 2°38.534 9.3 359 14.1 102540 83
2004-05-17 10:42 51°22.779 2°38.89 9.5 359 14.1 102540 83
2004-05-17 10:43 51°22.9 2°39.268 9.7 360 14 102550 84
2004-05-17 10:44 51°23.013 2°39.626 10.1 356 14 102540 84
2004-05-17 10:45 51°23.126 2°39.984 9.3 357 14 102540 84
2004-05-17 10:46 51°23.244 2°40.36 9.7 360 14 102550 84
2004-05-17 10:47 51°23.356 2°40.698 10.2 359 14 102550 84
2004-05-17 10:48 51°23.478 2°41.073 10.1 358 14 102550 84
2004-05-17 10:49 51°23.606 2°41.46 9.4 356 14 102550 84
2004-05-17 10:50 51°23.73 2°41.813 9.7 356 14.1 102550 84
2004-05-17 10:51 51°23.858 2°42.201 9.5 357 14.1 102550 84
2004-05-17 10:52 51°23.98 2°42.559 9.8 358 14.2 102550 84
2004-05-17 10:53 51°24.108 2°42.936 9.7 358 14.2 102550 83
2004-05-17 10:54 51°24.229 2°43.297 9.9 359 14.2 102550 84
2004-05-17 10:55 51°24.349 2°43.656 10.4 357 14.2 102550 84
2004-05-17 10:56 51°24.478 2°44.04 9.7 357 14.2 102550 84
2004-05-17 10:57 51°24.614 2°44.435 10.4 356 14.2 102550 85
2004-05-17 10:58 51°24.746 2°44.821 9.9 357 14.2 102540 85
2004-05-17 10:59 51°24.866 2°45.171 9.9 354 14.2 102540 85
2004-05-17 11:00 51°24.99 2°45.531 10.1 354 14.1 102540 85
2004-05-17 11:01 51°25.11 2°45.881 9.5 354 14.2 102540 85
2004-05-17 11:02 51°25.232 2°46.238 9.8 353 14.2 102540 85
2004-05-17 11:03 51°25.354 2°46.595 9.8 355 14.2 102540 85
2004-05-17 11:04 51°25.471 2°46.938 9.7 354 14.2 102540 85
2004-05-17 11:05 51°25.597 2°47.304 10.6 355 14.2 102540 85
2004-05-17 11:06 51°25.72 2°47.659 9.9 355 14.1 102540 85
2004-05-17 11:07 51°25.842 2°48.011 8.9 354 14.1 102540 86
2004-05-17 11:08 51°25.936 2°48.281 7.5 354 14.1 102530 86
2004-05-17 11:09 51°25.985 2°48.492 4.8 332 14.1 102550 86
2004-05-17 11:10 51°26.001 2°48.554 2.1 344 14.1 102550 86
2004-05-17 11:11 51°26.005 2°48.573 2.4 340 14.2 102550 86
2004-05-17 11:12 51°26.012 2°48.596 2.6 325 14.3 102550 85
2004-05-17 11:13 51°26.022 2°48.621 2.7 311 14.3 102550 85
2004-05-17 11:14 51°26.033 2°48.649 2.9 300 14.4 102550 85
2004-05-17 11:15 51°26.045 2°48.68 2.6 289 14.5 102550 85
2004-05-17 11:16 51°26.057 2°48.715 2.9 278 14.6 102540 85
2004-05-17 11:17 51°26.056 2°48.802 5.3 331 14.5 102540 84
2004-05-17 11:18 51°26.068 2°49.114 9.4 349 14.5 102530 84
2004-05-17 11:19 51°26.123 2°49.516 9.2 351 14.4 102530 84
2004-05-17 11:20 51°26.175 2°49.91 9.3 349 14.4 102530 84
2004-05-17 11:21 51°26.226 2°50.324 9.3 349 14.4 102530 84
2004-05-17 11:22 51°26.275 2°50.726 9.1 350 14.4 102530 84
2004-05-17 11:23 51°26.358 2°51.118 9.8 351 14.3 102520 83
2004-05-17 11:25 51°26.439 2°51.548 9.3 347 14.3 102530 84
2004-05-17 11:26 51°26.517 2°51.956 10.1 348 14.3 102530 84
2004-05-17 11:27 51°26.576 2°52.355 9.8 345 14.3 102530 84
2004-05-17 11:28 51°26.631 2°52.753 9.5 346 14.3 102530 84
2004-05-17 11:29 51°26.679 2°53.137 9.4 345 14.3 102530 84
2004-05-17 11:30 51°26.729 2°53.533 9.5 345 14.4 102530 84
2004-05-17 11:31 51°26.786 2°53.941 8.9 346 14.4 102520 84
2004-05-17 11:32 51°26.842 2°54.335 9.5 344 14.4 102530 84
2004-05-17 11:33 51°26.898 2°54.733 9.1 343 14.4 102530 84
2004-05-17 11:34 51°26.953 2°55.125 9.1 345 14.4 102530 84
2004-05-17 11:35 51°27.008 2°55.53 9.5 344 14.4 102530 84
2004-05-17 11:36 51°27.063 2°55.927 9.1 344 14.5 102520 84
2004-05-17 11:37 51°27.116 2°56.307 9 344 14.5 102530 83
2004-05-17 11:38 51°27.171 2°56.716 9.1 345 14.5 102530 84
2004-05-17 11:39 51°27.225 2°57.116 8.6 347 14.5 102530 84
2004-05-17 11:40 51°27.278 2°57.513 9.2 344 14.6 102520 84
2004-05-17 11:41 51°27.326 2°57.897 8.7 347 14.6 102530 84
2004-05-17 11:42 51°27.38 2°58.307 9 346 14.6 102530 83
2004-05-17 11:43 51°27.43 2°58.702 9.2 346 14.6 102530 83
2004-05-17 11:44 51°27.496 2°59.091 9.1 348 14.6 102520 83
2004-05-17 11:45 51°27.58 2°59.458 9.3 349 14.6 102520 83
2004-05-17 11:46 51°27.661 2°59.855 8.8 348 14.6 102520 83
2004-05-17 11:47 51°27.734 3°0.234 9.2 347 14.6 102520 83
2004-05-17 11:48 51°27.811 3°0.626 9.3 345 14.6 102520 83
2004-05-17 11:49 51°27.885 3°1.013 9.1 347 14.5 102520 83
2004-05-17 11:50 51°27.966 3°1.422 8.9 347 14.5 102520 83
2004-05-17 11:51 51°28.044 3°1.807 9.7 346 14.6 102510 83
2004-05-17 11:52 51°28.113 3°2.204 9.6 346 14.6 102510 83
2004-05-17 11:53 51°28.169 3°2.607 9.2 346 14.6 102520 83
2004-05-17 11:54 51°28.226 3°3.018 9.4 348 14.6 102510 83
2004-05-17 11:55 51°28.275 3°3.369 7.3 338 14.6 102520 83
2004-05-17 11:56 51°28.303 3°3.565 4.3 318 14.6 102530 83
2004-05-17 11:57 51°28.32 3°3.599 3.5 276 14.6 102530 83
2004-05-17 11:58 51°28.336 3°3.622 3.7 270 14.5 102530 83
2004-05-17 11:59 51°28.353 3°3.65 3.7 264 14.4 102530 83
2004-05-17 12:00 51°28.368 3°3.682 3.1 260 14.3 102530 83
2004-05-17 12:01 51°28.382 3°3.717 3.2 264 14.2 102530 84
2004-05-17 12:02 51°28.396 3°3.755 3.3 262 14.2 102530 84
2004-05-17 12:03 51°28.41 3°3.797 2.3 259 14.2 102530 84
2004-05-17 12:04 51°28.422 3°3.84 3 265 14.2 102530 84
2004-05-17 12:05 51°28.434 3°3.89 3.2 285 14.1 102530 84
2004-05-17 12:06 51°28.435 3°4.075 5.4 319 14.2 102530 85
2004-05-17 12:07 51°28.351 3°4.371 5.6 334 14.3 102530 84
2004-05-17 12:08 51°28.213 3°4.674 5.7 339 14.4 102530 84
2004-05-17 12:09 51°28.073 3°4.976 5.6 336 14.6 102530 83
2004-05-17 12:10 51°27.934 3°5.271 5.2 339 14.7 102530 83
2004-05-17 12:11 51°27.792 3°5.568 5.4 340 14.8 102530 82
2004-05-17 12:12 51°27.652 3°5.864 5.7 340 14.9 102530 82
2004-05-17 12:13 51°27.509 3°6.165 5.8 341 14.9 102530 81
2004-05-17 12:14 51°27.37 3°6.454 5.5 337 14.9 102530 81
2004-05-17 12:15 51°27.224 3°6.745 5.6 339 15 102530 81
2004-05-17 12:16 51°27.067 3°7.007 5.2 341 15 102530 81
2004-05-17 12:17 51°26.907 3°7.263 5.1 339 15 102520 81
2004-05-17 12:18 51°26.748 3°7.557 5.4 339 15 102520 81
2004-05-17 12:19 51°26.616 3°7.881 6.2 336 14.9 102520 81
2004-05-17 12:20 51°26.521 3°8.139 3.5 315 15 102520 81
2004-05-17 12:21 51°26.454 3°8.291 2.9 267 15 102520 81
2004-05-17 12:22 51°26.453 3°8.334 3 249 14.9 102520 80
2004-05-17 12:23 51°26.467 3°8.348 2.9 248 14.7 102520 80
2004-05-17 12:24 51°26.481 3°8.367 3 243 14.6 102520 81
2004-05-17 12:25 51°26.493 3°8.391 3 242 14.5 102520 81
2004-05-17 12:26 51°26.506 3°8.418 3.3 243 14.5 102520 82
2004-05-17 12:27 51°26.517 3°8.448 3.4 243 14.5 102520 82
2004-05-17 12:28 51°26.528 3°8.478 2.4 250 14.5 102520 82
2004-05-17 12:29 51°26.539 3°8.511 2.6 255 14.4 102520 82
2004-05-17 12:30 51°26.551 3°8.545 3.3 261 14.3 102520 82
2004-05-17 12:31 51°26.565 3°8.58 4.1 266 14.3 102510 83
2004-05-17 12:32 51°26.58 3°8.619 3.9 274 14.5 102510 83
2004-05-17 12:33 51°26.595 3°8.662 3.5 284 14.4 102510 83
2004-05-17 12:34 51°26.572 3°8.794 2.5 291 14.5 102510 83
2004-05-17 12:35 51°26.482 3°8.817 0.5 195 14.7 102510 83
2004-05-17 12:36 51°26.375 3°8.802 1.4 31 14.9 102510 83
2004-05-17 12:37 51°26.23 3°8.716 3.8 39 14.8 102510 81
2004-05-17 12:38 51°26.091 3°8.604 2.3 54 14.8 102510 81
2004-05-17 12:39 51°26.014 3°8.519 2.3 97 14.7 102510 81
2004-05-17 12:40 51°25.981 3°8.447 3.2 124 14.6 102510 81
2004-05-17 12:41 51°25.983 3°8.433 3.2 128 14.5 102500 82
2004-05-17 12:42 51°25.988 3°8.423 3.3 118 14.5 102500 82
2004-05-17 12:43 51°26.032 3°8.345 7.4 25 14.5 102500 82
2004-05-17 12:44 51°26.208 3°8.412 9.4 348 14.5 102490 82
2004-05-17 12:45 51°26.234 3°8.761 7.1   14.6 102490 82
2004-05-17 12:46 51°26.212 3°9.135 7.7 338 14.6 102490 82
2004-05-17 12:47 51°26.191 3°9.512 8.1 337 14.7 102490 81
2004-05-17 12:48 51°26.162 3°9.882 7.5 338 14.8 102490 81
2004-05-17 12:49 51°26.13 3°10.263 7.3 336 14.8 102490 81
2004-05-17 12:50 51°26.098 3°10.634 7.7 336 14.8 102490 81
2004-05-17 12:51 51°26.066 3°11.003 7.2 338 14.8 102490 81
2004-05-17 12:52 51°26.036 3°11.364 7.2 335 14.8 102490 81
2004-05-17 12:53 51°26.005 3°11.738 7.6 339 14.9 102490 81
2004-05-17 12:54 51°25.981 3°12.041 5.3 325 14.9 102490 80
2004-05-17 12:55 51°25.961 3°12.286 5.4 42 14.8 102490 80
2004-05-17 12:56 51°25.959 3°12.415 3.3 242 14.8 102500 80
2004-05-17 12:57 51°25.974 3°12.421 4.1 237 14.7 102500 80
2004-05-17 12:58 51°25.974 3°12.459 3.3 292 14.7 102500 80
2004-05-17 12:59 51°25.919 3°12.729 6.3 329 14.7 102490 81
2004-05-17 13:00 51°25.868 3°13.078 7.7 335 14.8 102490 81
2004-05-17 13:01 51°25.841 3°13.44 7.2 333 14.8 102490 81
2004-05-17 13:02 51°25.81 3°13.814 7.3 334 14.9 102490 80
2004-05-17 13:03 51°25.808 3°14.193 8.4 336 14.9 102490 80
2004-05-17 13:04 51°25.824 3°14.576 7.9 337 15 102490 80
2004-05-17 13:05 51°25.839 3°14.959 8 334 15 102490 80
2004-05-17 13:06 51°25.853 3°15.35 8 335 15 102490 80
2004-05-17 13:07 51°25.871 3°15.692 7.1 330 15 102490 80
2004-05-17 13:08 51°25.92 3°15.925 5.2 43 15 102480 80
2004-05-17 13:09 51°25.938 3°15.991 3.5 240 15 102490 80
2004-05-17 13:10 51°25.952 3°15.997 4 237 14.9 102490 80
2004-05-17 13:11 51°25.921 3°16.138 5.8 331 14.9 102490 80
2004-05-17 13:12 51°25.907 3°16.486 7.5 334 14.9 102480 80
2004-05-17 13:13 51°25.895 3°16.872 7.8 334 15 102480 80
2004-05-17 13:14 51°25.883 3°17.249 7.7 332 15 102480 80
2004-05-17 13:15 51°25.871 3°17.63 6.8 324 15.1 102480 80
2004-05-17 13:16 51°25.872 3°17.835 5.1   15.1 102480 79
2004-05-17 13:17 51°25.881 3°17.858 4.2 306 15.1 102490 79
2004-05-17 13:18 51°25.888 3°17.87 3.7 307 15.2 102490 79
2004-05-17 13:19 51°25.897 3°17.885 3.7   15.3 102490 79
2004-05-17 13:20 51°25.91 3°17.927 4.7 313 15.4 102480 79
2004-05-17 13:21 51°25.859 3°18.123 3.3 333 15.4 102480 78
2004-05-17 13:22 51°25.673 3°18.271 4.1 343 15.5 102490 78
2004-05-17 13:23 51°25.462 3°18.36 3.9 1 15.5 102490 78
2004-05-17 13:24 51°25.249 3°18.351 3.9 15 15.6 102490 78
2004-05-17 13:25 51°25.036 3°18.267 4.1 17 15.5 102490 78
2004-05-17 13:26 51°24.844 3°18.104 4.8 27 15.5 102480 78
2004-05-17 13:27 51°24.675 3°17.881 5.4 30 15.5 102480 78
2004-05-17 13:28 51°24.5 3°17.653 5.8 33 15.3 102480 78
2004-05-17 13:29 51°24.352 3°17.387 5.9 31 15.2 102480 78
2004-05-17 13:30 51°24.23 3°17.094 6.7 38 15.1 102470 78
2004-05-17 13:31 51°24.106 3°16.8 6.4 37 14.9 102470 79
2004-05-17 13:32 51°23.992 3°16.5 6.9 39 14.8 102470 79
2004-05-17 13:33 51°23.893 3°16.194 6.8 37 14.7 102470 80
2004-05-17 13:34 51°23.79 3°15.883 6.8 35 14.7 102470 80
2004-05-17 13:35 51°23.688 3°15.578 6.8 36 14.7 102470 80
2004-05-17 13:36 51°23.571 3°15.284 6.5 35 14.7 102470 80
2004-05-17 13:37 51°23.456 3°14.991 6.4 37 14.7 102470 80
2004-05-17 13:38 51°23.334 3°14.707 6.2 38 14.7 102470 80
2004-05-17 13:39 51°23.208 3°14.436 6.3 39 14.7 102460 80
2004-05-17 13:40 51°23.079 3°14.154 6.1 35 14.6 102460 80
2004-05-17 13:41 51°22.942 3°13.849 6 32 14.6 102460 80
2004-05-17 13:42 51°22.814 3°13.565 6.2 34 14.7 102460 80
2004-05-17 13:43 51°22.68 3°13.271 5.8 36 14.8 102460 80
2004-05-17 13:44 51°22.585 3°13.043 3.7 67 14.8 102470 80
2004-05-17 13:45 51°22.587 3°13.011 3.2 64 14.7 102460 80
2004-05-17 13:46 51°22.588 3°13.028 3.1 51 14.7 102470 80
2004-05-17 13:47 51°22.59 3°13.044 3.4 36 14.6 102460 80
2004-05-17 13:48 51°22.599 3°13.058 4.4 25 14.6 102460 80
2004-05-17 13:49 51°22.661 3°13.132 6.4 331 14.6 102460 81
2004-05-17 13:50 51°22.659 3°13.333 4.5 312 14.7 102460 80
2004-05-17 13:51 51°22.563 3°13.406 1.4 81 14.9 102460 80
2004-05-17 13:52 51°22.506 3°13.33 3.4 109 14.9 102460 79
2004-05-17 13:53 51°22.501 3°13.343 3.3 119 14.9 102460 79
2004-05-17 13:54 51°22.497 3°13.364 3.2 130 14.9 102460 79
2004-05-17 13:55 51°22.464 3°13.226 5.7 46 14.9 102460 79
2004-05-17 13:56 51°22.404 3°12.906 6.9 36 14.8 102450 79
2004-05-17 13:57 51°22.343 3°12.569 6.8 37 14.7 102450 80
2004-05-17 13:58 51°22.283 3°12.23 6.9 38 14.7 102450 80
2004-05-17 13:59 51°22.252 3°11.878 8.1 39 14.6 102450 80
2004-05-17 14:00 51°22.227 3°11.495 7.5 38 14.6 102450 80
2004-05-17 14:01 51°22.199 3°11.145 7.1 41 14.5 102450 81
2004-05-17 14:02 51°22.117 3°10.801 6.8 40 14.5 102450 81
2004-05-17 14:03 51°22.011 3°10.479 6.1 42 14.5 102450 81
2004-05-17 14:04 51°21.896 3°10.187 6.3 42 14.5 102460 81
2004-05-17 14:05 51°21.78 3°9.889 5.7 43 14.5 102450 80
2004-05-17 14:06 51°21.648 3°9.608 5.8 36 14.5 102450 80
2004-05-17 14:07 51°21.51 3°9.311 5.7 38 14.6 102450 80
2004-05-17 14:08 51°21.427 3°9.091 4.8 66 14.5 102460 80
2004-05-17 14:09 51°21.431 3°9.007 3.9 64 14.5 102460 81
2004-05-17 14:10 51°21.434 3°9.007 3.9 60 14.5 102460 81
2004-05-17 14:11 51°21.451 3°8.958 5.6 65 14.5 102450 81
2004-05-17 14:12 51°21.464 3°8.713 7.1 48 14.5 102450 81
2004-05-17 14:13 51°21.407 3°8.397 5.6 45 14.5 102450 81
2004-05-17 14:14 51°21.261 3°8.153 5.2 40 14.5 102450 81
2004-05-17 14:15 51°21.116 3°7.871 5.3 43 14.5 102450 81
2004-05-17 14:16 51°20.976 3°7.596 5.3 44 14.5 102450 81
2004-05-17 14:17 51°20.836 3°7.322 5.2 43 14.6 102450 81
2004-05-17 14:18 51°20.702 3°7.043 4.6 44 14.6 102450 81
2004-05-17 14:19 51°20.568 3°6.764 4.6 39 14.6 102450 80
2004-05-17 14:20 51°20.43 3°6.488 5.2 40 14.6 102450 80
2004-05-17 14:21 51°20.295 3°6.211 5 41 14.7 102450 80
2004-05-17 14:22 51°20.148 3°5.916 5 40 14.7 102450 80
2004-05-17 14:23 51°20.012 3°5.633 4.8 38 14.7 102450 79
2004-05-17 14:24 51°19.877 3°5.348 4.7 40 14.8 102450 79
2004-05-17 14:25 51°19.725 3°5.037 4.8 39 14.8 102450 79
2004-05-17 14:26 51°19.587 3°4.755 4.5 42 14.8 102450 79
2004-05-17 14:27 51°19.447 3°4.475 4.9 35 14.8 102450 79
2004-05-17 14:28 51°19.312 3°4.187 4.8 38 14.9 102450 79
2004-05-17 14:29 51°19.178 3°3.9 5 39 14.9 102450 79
2004-05-17 14:30 51°19.044 3°3.616 4.6 34 14.9 102450 79
2004-05-17 14:31 51°18.908 3°3.322 4.6 36 14.9 102450 79
2004-05-17 14:32 51°18.771 3°3.043 4.2 38 14.9 102450 79
2004-05-17 14:33 51°18.66 3°2.735 5.2 39 14.9 102450 80
2004-05-17 14:34 51°18.551 3°2.425 5 38 14.8 102450 79
2004-05-17 14:35 51°18.44 3°2.115 5.2 35 14.9 102450 80
2004-05-17 14:36 51°18.327 3°1.803 4.8 34 14.9 102450 80
2004-05-17 14:37 51°18.213 3°1.492 4.9 29 15.1 102440 79
2004-05-17 14:38 51°18.103 3°1.191 4.5 28 15.1 102450 79
2004-05-17 14:39 51°17.98 3°0.89 4.9 29 15.3 102440 79
2004-05-17 14:40 51°17.863 3°0.585 4.4 31 15.3 102440 78
2004-05-17 14:41 51°17.744 3°0.281 4.3 27 15.4 102440 78
2004-05-17 14:42 51°17.623 2°59.976 4.8 29 15.5 102440 78
2004-05-17 14:43 51°17.501 2°59.666 4.8 30 15.5 102440 77
2004-05-17 14:44 51°17.376 2°59.358 5 35 15.5 102440 77
2004-05-17 14:45 51°17.247 2°59.026 5.2 31 15.5 102440 78
2004-05-17 14:46 51°17.128 2°58.719 5.2 32 15.4 102430 77
2004-05-17 14:47 51°17.003 2°58.401 4.8 30 15.3 102440 78
2004-05-17 14:48 51°16.88 2°58.085 5 33 15.3 102440 78
2004-05-17 14:49 51°16.756 2°57.765 4.8 36 15.3 102430 78
2004-05-17 14:50 51°16.634 2°57.457 4.9 24 15.4 102440 78
2004-05-17 14:51 51°16.518 2°57.159 4.9 31 15.4 102440 79
2004-05-17 14:52 51°16.387 2°56.825 5.3 32 15.4 102440 78
2004-05-17 14:53 51°16.259 2°56.496 5 31 15.4 102440 78
2004-05-17 14:54 51°16.116 2°56.206 5.2 32 15.4 102440 78
2004-05-17 14:55 51°15.973 2°55.916 5.1 29 15.4 102450 78
2004-05-17 14:56 51°15.822 2°55.642 4.8 29 15.4 102450 79
2004-05-17 14:57 51°15.65 2°55.38 4.7 27 15.4 102450 79
2004-05-17 14:58 51°15.495 2°55.159 2.8 30 15.5 102450 79
2004-05-17 14:59 51°15.371 2°55.02 1.4 41 15.4 102450 78
2004-05-17 15:00 51°15.253 2°54.948 0.5 354 15.4 102440 79
2004-05-17 15:01 51°15.085 2°54.934 3 350 15.5 102450 79
2004-05-17 15:02 51°14.907 2°54.935 2.3 351 15.6 102450 78
2004-05-17 15:03 51°14.741 2°54.946 2.4 352 15.7 102450 79
2004-05-17 15:04 51°14.621 2°54.967 0.8 301 15.9 102440 79
2004-05-17 15:05 51°14.537 2°54.983 1.1 254 16 102450 78
2004-05-17 15:06 51°14.459 2°55.006 2.2 326 15.9 102450 77